Other Public Products
Issued by NWS Charleston, SC

Current Version | Previous Version | Graphics & Text | Print | Product List | Glossary On
Versions: 1 2 3 4 5 6 7 8 9 10 11 12 13 14 15 16 17 18 19 20 21 22 23 24 25 26 27 28 29 30 31 32 33 34 35 36 37 38 39 40 41 42 43 44 45 46 47 48 49 50
236 FPUS82 KCHS 220327 OPUCHS TEST...KCHS/KSAV Gateway Observations...TEST National Weather Service Charleston SC 1000 PM EST TUE NOV 21 2017 NOTE: "fair" indicates few or no clouds below 12,000 feet with no significant weather and/or obstructions to visibility. SCZ050-WAZ558-NCZ071-TXZ119-213-PAZ071-DCZ001-FLZ074-172-MI076- NYZ176-178-MAZ016-IL014-TNZ027-NJZ106-GAZ044-MD014-220400- ...Gateway Observations for Charleston International... CITY SKY/WX TMP DP RH WIND PRES REMARKS Chas Airport CLOUDY 61 61 100 CALM 30.00S Seattle RAIN 58 57 97 S9 29.88R FOG Charlotte CLOUDY 54 51 90 CALM 30.05F Dallas DFW CLEAR 59 39 47 N20G26 30.15R Dallas Love PTCLDY 60 40 47 N23G29 30.16R Philladelphia MOCLDY 54 40 59 SW9 30.05S Wash National CLOUDY 54 45 71 S8 30.05F Baltimore CLOUDY 54 44 69 S7 30.03F Miami PTCLDY 77 71 82 CALM 29.95R Detroit CLOUDY 37 29 72 NW15G22 29.97R WCI 28 Newark MOCLDY 50 39 66 S6 30.05S Laguardia MOCLDY 52 40 63 S9 30.04F J F K CLOUDY 49 43 80 SW9 30.07S Boston Logan PTCLDY 49 41 74 SW13 30.01R Ft. Lauderdale PTCLDY 77 71 82 CALM 29.94R Chicago O`Hare PTCLDY 30 14 51 N12 30.16R WCI 20 Chicago Midway CLEAR 30 16 56 NW15 30.17R WCI 19 Houston Bush CLOUDY 64 60 87 NE10 30.02R Houston Hobby CLOUDY 65 62 90 NE13 29.99R Nashville MOCLDY 45 33 63 S5 30.10R Atlanta MOCLDY 57 54 89 E3 30.04R $$ GAZ044-118-TXZ119-213-NCZ071-DCZ001-MDZ014-506-PAZ021-071-NJZ106- NYZ176-178-MAZ106-OHZ011-021-055-MIZ076-KYZ091-ILZ014-INZ047- MNZ060-ONZ431-220400- ...Gateway Observations for Savannah International... CITY SKY/WX TMP DP RH WIND PRES REMARKS Savannah Arpt CLOUDY 62 62 100 NW7 30.02R Atlanta MOCLDY 57 54 89 E3 30.04R Charlotte CLOUDY 54 51 90 CALM 30.05F Dallas DFW CLEAR 59 39 47 N20G26 30.15R Houston Bush CLOUDY 64 60 87 NE10 30.02R Wash National CLOUDY 54 45 71 S8 30.05F Wash Dulles CLOUDY 53 42 66 S9 30.03F Baltimore CLOUDY 54 44 69 S7 30.03F Philadelphia MOCLDY 54 40 59 SW9 30.05S Newark MOCLDY 50 39 66 S6 30.05S Laguardia MOCLDY 52 40 63 S9 30.04F J F K CLOUDY 49 43 80 SW9 30.07S Boston PTCLDY 49 41 74 SW13 30.01R Pittsburg CLOUDY 50 29 44 W5 29.92S Akron CLOUDY 47 33 58 W8 29.93R Cleveland LGT RAIN 41 37 86 NW17 29.98R Cincinnati CLOUDY 46 34 62 NW12 30.02R Columbus CLOUDY 46 35 67 NW16 29.99R Detroit CLOUDY 37 29 72 NW15G22 29.97R WCI 28 Chicago O`Hare PTCLDY 30 14 51 N12 30.16R WCI 20 Minneapolis CLEAR 20 11 68 NW12 30.30R WCI 8 Indianapolis PTCLDY 33 25 72 NW17G25 30.11R WCI 22 Toronto Canada LGT RAIN 39 34 81 NW13 29.85R WCI 32 $$

USA.gov is the U.S. government's official web portal to all federal, state and local government web resources and services.